Погода в Тумнине

Погода в Тумнине : погода сейчас, прогноз погоды и архив. Всё, что Вы хотите узнать о погоде в Тумнине!

Поиск расширенной информации на нашем сайте:

Другие новости

Новости СМИ2

Главная страница сайта

Новости сайта

03.07.2017

Напоминаем, что на нашем специализированном сайте Метеоцентр.Азия вы можете получить высокодетализированные автоматические прогнозы погоды по пунктам России, СНГ и мира в авиационном формате (включающие направление и скорость ветра, видимость, явления погоды, количество и форму облачности, нижнюю и верхнюю границу облачности).


Погода в Тумнине - сегодня

Время (UTC), дата Ветер
(°,м/с) 
Видим.   Явления Облачность Т
(°С)
Тd
(°С)
f(%) Тe
(°С)
Pmin
(гПа)
dP
(гПа)
Po
(мм)
O2
(г/м3)
Тmin Tmax R s Состояние
почвы
06 16.10.17 290 (З) 2{10}  20000 м    8/8 1000 м кучево-дожд. 
[Cb cap]
+4.1 -9.9 35 +4  1021  0.4  760  303           
09 16.10.17 260 (З) 20000 м  {ливн. осадки}  6/3 1000 м кучево-дожд., средняя 
[Cb cap|Ac trans]
-1.6 -8.3 60 -1  1022.1  761  309    +5.9  0.0     
12 16.10.17 тихо ()   20000 м  {ливн. осадки}  8/4 1000 м кучево-дожд., средняя 
[Cb cap|Ac trans]
-5.3 -8.7 77 -5  1022.6  0.4  761  314           
15 16.10.17 тихо ()   20000 м    1/0 верхняя 
[Ci fib]
-5.7 -8 84 -6  1022  -0.6  761  314           
18 16.10.17 тихо ()   20000 м    ясно 
-9.1 -10.2 92 -9  1021.7  -0.4  761  318           
21 16.10.17 тихо ()   20000 м    3/0 средняя 
[Ac trans]
-10.7 -11.7 92 -11  1020.9  -0.8  760  320  -10.7        замёрзшая 
00 17.10.17 тихо ()   20000 м    10/4 1000 м кучево-дожд., средняя 
[Cb cap|Ac trans]
-4.1 -7.4 78 -4  1019.7  -1  759  311  -10.7         
03 17.10.17 тихо ()   20000 м    10/4 1000 м кучево-дожд., средняя 
[Cb cap|Ac trans]
+0.2 -7.9 54 1018.7  -1  758  306           
06 17.10.17 200 (Ю) 20000 м    9/3 1000 м кучево-дожд., средняя 
[Cb cap|Ac trans]
+2.3 -5.2 58 +3  1017.4  -1.2  758  303           
09 17.10.17 190 (Ю) 20000 м    8/6 1000 м кучево-дожд., средняя 
[Cb cap|Ac trans]
-0.3 -2.9 83 1019.8  2.3  759  307    +2.5       
12 17.10.17 340 (С) 20000 м    3/0 средняя 
[Ac trans]
-4.9 -6 92 -4  1021.7  1.7  761  313           
15 17.10.17 тихо ()   20000 м    ясно 
-8.5 -9.6 92 -9  1023.4  1.6  762  318           
18 17.10.17 тихо ()   20000 м    ясно 
-10.6 -11.9 90 -11  1025  1.5  763  321           
21 17.10.17 тихо ()   20000 м    3/0 средняя 
[Ac trans]
-11 -12.2 91 -11  1026.1  1.1  764  322  -11.4        замёрзшая 
00 18.10.17 110 (В) 20000 м  {туман}  ясно 
-4 -7.2 78 -4  1026.4  0.5  764  313           
03 18.10.17 300 (СЗ) 20000 м    8/8 1000 м кучево-дожд. 
[Cb cap]
+4.4 -14.1 25 +4  1024.8  -1.4  763  304           
06 18.10.17 240 (ЮЗ) 20000 м    6/6 1000 м кучево-дожд. 
[Cb cap]
+4.5 -13.6 25 +4  1024.9  763  304           
09 18.10.17 тихо ()   20000 м    4/0 средняя 
[Ac trans]
-4.2 -10.5 61 -4  1025.9  0.8  764  314    +5.2       
12 18.10.17 040 (СВ) 20000 м    ясно 
-7 -10.8 74 -7  1026.9  0.9  764  317           
15 18.10.17 тихо ()   20000 м    ясно 
-10 -11.8 87 -10  1026.8  -0.2  764  321           
18 18.10.17 тихо ()   20000 м    ясно 
-11.8 -12.9 91 -12  1026.8  764  323           
21 18.10.17 тихо ()   20000 м    8/8 1000 м 
[Sc]
-12 -13.5 89 -12  1026.7  0.1  764  323  -12.6        замёрзшая 
00 19.10.17 тихо ()   20000 м    9/0 верхняя 
[Ci]
-3.8 -8.8 68 -4  1025.8  -0.7  764  313           
03 19.10.17 220 (ЮЗ) 20000 м    10/0 средняя 
[Ac trans]
+1.6 -8.5 47 +2  1023.7  -1.9  762  306           
06 19.10.17 160 (Ю) 20000 м    8/3 1000 м средняя, верхняя 
[Sc|Ac trans|Ci sp]
+4.4 -7.7 41 +4  1022  -1.7  761  303           
Время (UTC), дата Ветер
(°,м/с) 
Видим.   Явления Облачность Т
(°С)
Тd
(°С)
f(%) Тe
(°С)
Pmin
(гПа)
dP
(гПа)
Po
(мм)
O2
(г/м3)
Тmin Tmax R s Состояние
почвы

Для получения пояснительной информации подведите курсор к названию столбца.

ПОГОДА в Тумнине - архив

Всё, что Вы хотите узнать о погоде в Тумнине - удобно и подробно!

Выберите нужную дату (начиная с 1 января 2015* года) и нажмите кнопку "Найти".
Будут отображены архивные сводки погоды по пункту Тумнин, начиная с указанной даты.


Отображать данные в формате CSV (для использования в таблицах Excel)


Внимание! Наш архив погоды предназначен исключительно для личного некоммерческого использования в познавательных целях. Если Вам необходимы официальные справки о состоянии погоды (для производственных, юридических, коммерческих и т.п. целей), обращайтесь в органы Росгидромета.

*Примечание: данная дата относится к архиву по метеостанциям СССР (Россия, СНГ, Балтия).
Архив по метеостанциям Зарубежной Европы и Азии (кроме Китая) хранится 10 дней, по другим регионам земного шара (Китай, Африка, Америка, Австралия, Океания) - 1 день.

Тумнин - район местоположения метеостанции


Название, широта, долгота, высота метеостанции:
Тумнин 49.7°ш. 140.1°д. 58 м над ур. моря [Российская Федерация]

Дополнительная информация

В oтличие oт бoльшинства пoгoдных сайтoв мы публикуем пoдрoбную метеoинфoрмацию в детальнoм прoфессиoнальнoм фoрмате.

Характеристики температуры и влажнoсти вoздуха измеряются на высoте 2 м в тени вдали oт зданий и деревьев.
Скoрoсть ветра измеряется на высoте 10 м (на урoвне рoста челoвека скoрoсть ветра ниже в 1.5-2 раза). Если метеoстанция нахoдится в гoрoде или в лесу, тo скoрoсть ветра занижена на 2-4 м/с пo сравнению с oткрытым местoм. Скoрoсть ветра над акватoриями крупных рек и oзёр, а также на вершинах хoлмoв на 2-5 м/с выше, чем в oбычных услoвиях.
Атмoсфернoе давление в разных тoчках местнoсти мoжет значительнo oтличаться oт давления на метеoстанции, в зависимoсти oт услoвий рельефа (при пoдъёме на 10 м давление пoнижается примернo на 1 мм рт.ст.).